Shelton, WA
on Monday, January 7, 2013

Monday
Previous Day Next Day
Daily Summary
 ActualAverage (KOLM)Record (KOLM)
Temperature
Mean Temperature °F 39°F  
Max Temperature 48°F 45°F 57°F (2002)
Min Temperature 37°F 34°F 6°F (1979)
Degree Days
Heating Degree Days 22 26  
Month to date heating degree days 182  
Since 1 July heating degree days 2452  
Cooling Degree Days 0 0  
Month to date cooling degree days 0  
Year to date cooling degree days 0  
Moisture
Dew Point 43°F   
Average Humidity 94    
Maximum Humidity 100    
Minimum Humidity 87    
Precipitation
Precipitation 0.38 in 0.25 in 4.82 in (2009)
Month to date precipitation 1.78  
Year to date precipitation 1.78  
Wind
Wind Speed 9 mph   
Max Wind Speed 21 mph   
Max Gust Speed 36 mph   
Visibility 10 miles   
Events Rain   

Key: T is trace of precipitation, MM is missing value
Source: NWS Daily Summary
Time(PST)TemperatureDew PointHumidity Pressure Visibility Wind DirectionWind SpeedGust SpeedPrecipitationEvents Conditions
12:53 AM 37.9°F 37.9°F 100% 29.94 in 10.0 miles NNW 3.5 mph - 0.07 in Rain Light Rain
1:20 AM 37.4°F 37.4°F 100% 29.93 in 8.0 miles Calm Calm - 0.04 in Rain Light Rain
1:53 AM 39.0°F 37.9°F 96% 29.92 in 10.0 miles Calm Calm - 0.07 in Rain Light Rain
2:53 AM 39.0°F 39.0°F 100% 29.90 in 10.0 miles Calm Calm - 0.05 in Rain Light Rain
4:53 AM 39.0°F 39.0°F 100% 29.84 in 10.0 miles Calm Calm - 0.07 in Rain Light Rain
5:44 AM 41.0°F 39.2°F 93% 29.82 in 10.0 miles WSW 3.5 mph - 0.04 in Rain Light Rain
5:53 AM 41.0°F 41.0°F 100% 29.84 in 10.0 miles SW 3.5 mph - 0.05 in Rain Light Rain
6:17 AM 42.8°F 41.0°F 93% 29.83 in 10.0 miles WSW 5.8 mph - 0.03 in Rain Light Rain
6:53 AM 43.0°F 42.1°F 97% 29.81 in 10.0 miles SW 5.8 mph - 0.04 in Rain Light Rain
7:12 AM 46.4°F 44.6°F 93% 29.81 in 10.0 miles SW 11.5 mph - 0.01 in Rain Light Rain
7:53 AM 48.9°F 46.9°F 93% 29.81 in 10.0 miles SW 18.4 mph 26.5 mph 0.01 in   Overcast
8:53 AM 48.9°F 46.9°F 93% 29.84 in 10.0 miles SW 20.7 mph 26.5 mph 0.01 in   Overcast
9:53 AM 48.9°F 48.0°F 97% 29.88 in 10.0 miles SW 17.3 mph 24.2 mph 0.01 in   Overcast
10:53 AM 48.9°F 48.0°F 97% 29.92 in 10.0 miles SW 16.1 mph 26.5 mph N/A   Overcast
11:53 AM 48.9°F 46.9°F 93% 29.93 in 10.0 miles SW 17.3 mph 27.6 mph N/A   Overcast
12:53 PM 48.0°F 46.0°F 93% 29.94 in 10.0 miles SW 18.4 mph 31.1 mph 0.00 in   Overcast
1:32 PM 48.2°F 46.4°F 93% 29.96 in 10.0 miles SW 20.7 mph 35.7 mph 0.00 in   Overcast
1:39 PM 48.2°F 46.4°F 93% 29.96 in 10.0 miles WSW 20.7 mph 35.7 mph 0.00 in   Overcast
1:53 PM 48.0°F 45.0°F 89% 29.98 in 10.0 miles WSW 18.4 mph 31.1 mph 0.00 in   Overcast
2:53 PM 48.2°F 44.6°F 87% 29.99 in 10.0 miles WSW 15.0 mph 25.3 mph N/A   Overcast
3:53 PM 46.4°F 44.6°F 93% 30.02 in 10.0 miles SW 16.1 mph - N/A   Overcast
4:53 PM 46.0°F 43.0°F 89% 30.05 in 10.0 miles SW 20.7 mph 26.5 mph N/A   Mostly Cloudy
5:04 PM 46.4°F 42.8°F 87% 30.04 in 10.0 miles SW 20.7 mph 26.5 mph N/A   Partly Cloudy
5:53 PM 45.0°F 42.1°F 90% 30.08 in 10.0 miles SW 17.3 mph 27.6 mph N/A   Clear
6:53 PM 44.1°F 41.0°F 89% 30.10 in 10.0 miles SW 10.4 mph - N/A   Clear
7:53 PM 44.1°F 42.1°F 93% 30.12 in 10.0 miles WSW 12.7 mph - N/A   Overcast
8:53 PM 43.0°F 41.0°F 93% 30.12 in 10.0 miles WSW 10.4 mph - N/A   Overcast
9:53 PM 43.0°F 41.0°F 93% 30.14 in 10.0 miles SW 12.7 mph - N/A   Overcast
10:53 PM 44.1°F 42.1°F 93% 30.14 in 10.0 miles WSW 13.8 mph - N/A   Overcast
11:53 PM 43.0°F 42.1°F 97% 30.16 in 10.0 miles SW 6.9 mph - N/A   Overcast
Moon Phase
Jan. 07 Jan. 11 Jan. 18 Jan. 26 Feb. 03
Sunrise:07:58 AM (PST) Moon Rise:03:24 AM (PST)1/7
Sunset:04:40 PM (PST) Moon Set:12:58 PM (PST)1/7

Copyright © 2014 The Weather Underground, Inc.